DW8507 Weather Reports


time (UTC)temp
C
wind
direction
speed
KPH
gust
KPH
rain 1hr
cm
rain 24hr
cm
rain mn
cm
humidity
%
barometer
mb
20260508024057 8 0 0.0 0.0 0.00 0.00 0.00 82 1010.7
20260508023157 8 0 0.0 0.0 0.00 0.00 0.00 82 1010.7
20260508022257 8 0 0.0 0.0 0.00 0.00 0.00 82 1010.8
20260508021357 8 0 0.0 0.0 0.00 0.00 0.00 82 1010.6
20260508020709 8 0 0.0 0.0 0.00 0.00 0.00 81 1010.7
20260508015557 8 0 0.0 0.0 0.00 0.00 0.00 81 1010.6
20260508014657 8 0 0.0 0.0 0.00 0.00 0.00 80 1010.6
20260508013757 8 0 0.0 0.0 0.00 0.00 0.00 80 1010.4
20260508012857 8 0 0.0 0.0 0.00 0.00 0.00 80 1010.6
20260508011957 8 0 0.0 0.0 0.00 0.00 0.00 79 1010.6
20260508011057 8 0 0.0 0.0 0.00 0.00 0.00 79 1010.7
20260508010157 8 0 0.0 0.0 0.00 0.00 0.00 78 1010.5
20260508005257 9 0 0.0 0.0 0.00 0.00 0.00 77 1010.7
20260508004610 9 0 0.0 0.0 0.00 0.00 0.00 77 1010.7
20260508003457 10 0 0.0 0.0 0.00 0.00 0.00 76 1010.6
20260508002809 10 0 0.0 0.0 0.00 0.00 0.00 76 1010.7
20260508001657 10 0 0.0 0.0 0.00 0.00 0.00 76 1010.7
20260508000757 10 0 0.0 0.0 0.00 0.00 0.00 76 1010.8
20260508000112 10 0 0.0 0.0 0.00 0.00 0.00 76 1010.6
20260507234959 10 0 0.0 0.0 0.00 0.00 0.00 76 1010.9
20260507234057 10 0 0.0 0.0 0.00 0.00 0.00 75 1010.8
20260507233157 10 0 0.0 0.0 0.00 0.00 0.00 75 1011.1
20260507232257 10 0 0.0 0.0 0.00 0.00 0.00 74 1010.9
20260507231357 10 0 0.0 0.0 0.00 0.00 0.00 74 1010.9
20260507230457 11 0 0.0 0.0 0.00 0.00 0.00 73 1011.1
20260507225559 11 0 0.0 0.0 0.00 0.00 0.00 73 1011.1
20260507224657 11 0 0.0 0.0 0.00 0.00 0.00 73 1011.2
20260507223757 11 0 0.0 0.0 0.00 0.00 0.00 73 1010.8
20260507222858 11 0 0.0 0.0 0.00 0.00 0.00 73 1011.0
20260507221958 11 0 0.0 0.0 0.00 0.00 0.00 73 1011.0
20260507221057 11 0 0.0 0.0 0.00 0.00 0.00 73 1010.9
20260507220412 11 0 0.0 0.0 0.00 0.00 0.00 73 1010.9
20260507215257 11 0 0.0 0.0 0.00 0.00 0.00 73 1011.1
20260507214357 11 0 0.0 0.0 0.00 0.00 0.00 73 1011.0
20260507213457 12 0 0.0 0.0 0.00 0.00 0.00 72 1011.0
20260507212559 12 0 0.0 0.0 0.00 0.00 0.00 72 1010.9
20260507211657 12 0 0.0 0.0 0.00 0.00 0.00 72 1011.0
20260507210757 12 0 0.0 0.0 0.00 0.00 0.00 71 1010.8
20260507210108 12 0 0.0 0.0 0.00 0.00 0.00 69 1010.6
20260507204957 12 0 0.0 0.0 0.00 0.00 0.00 68 1010.9
20260507204057 12 0 0.0 0.0 0.00 0.00 0.00 67 1010.7
20260507203157 12 0 0.0 0.0 0.00 0.00 0.00 66 1010.8
20260507202257 12 0 0.0 0.0 0.00 0.00 0.00 65 1010.5
20260507201610 13 0 0.0 0.0 0.00 0.00 0.00 65 1010.2
20260507200457 13 0 0.0 0.0 0.00 0.00 0.00 64 1010.3
20260507195557 13 0 0.0 0.0 0.00 0.00 0.00 64 1009.9
20260507194907 13 0 0.0 0.0 0.00 0.00 0.00 63 1009.9
20260507193757 13 0 0.0 0.0 0.00 0.00 0.00 63 1009.5
20260507193107 13 0 0.0 0.0 0.00 0.00 0.00 62 1009.9
20260507192209 14 0 0.0 0.0 0.00 0.00 0.00 62 1009.5
20260507191057 14 0 0.0 0.0 0.00 0.00 0.00 61 1009.5
20260507190157 14 0 0.0 0.0 0.00 0.00 0.00 61 1009.6
20260507185257 15 0 0.0 0.0 0.00 0.00 0.00 61 1009.6
20260507184400 15 0 0.0 0.0 0.00 0.00 0.00 61 1009.7
20260507183457 15 0 0.0 0.0 0.00 0.00 0.00 60 1009.5
20260507182557 15 0 0.0 0.0 0.00 0.00 0.00 60 1009.4
20260507181657 15 0 0.0 0.0 0.00 0.00 0.00 59 1009.3
20260507181008 15 0 0.0 0.0 0.00 0.00 0.00 58 1009.3
20260507175857 15 0 0.0 0.0 0.00 0.00 0.00 56 1009.2
20260507175208 15 0 0.0 0.0 0.00 0.00 0.00 55 1009.2
20260507174310 15 0 0.0 0.0 0.00 0.00 0.00 53 1009.0
20260507173157 15 0 0.0 0.0 0.00 0.00 0.00 52 1009.1
20260507172257 16 0 0.0 0.0 0.00 0.00 0.00 50 1008.9
20260507171357 16 0 0.0 0.0 0.00 0.00 0.00 50 1009.0
20260507170457 16 0 0.0 0.0 0.00 0.00 0.00 48 1009.1
20260507165557 16 0 0.0 0.0 0.00 0.00 0.00 48 1008.9
20260507164657 16 0 0.0 0.0 0.00 0.00 0.00 50 1009.0
20260507164006 16 0 0.0 0.0 0.00 0.00 0.00 47 1009.1
20260507162858 17 0 0.0 0.0 0.00 0.00 0.00 45 1009.0
20260507161959 17 0 0.0 0.0 0.00 0.00 0.00 43 1009.1
20260507161308 17 0 0.0 0.0 0.00 0.00 0.00 40 1009.1
20260507160157 17 0 0.0 0.0 0.00 0.00 0.00 40 1009.2
20260507155257 17 0 0.0 0.0 0.00 0.00 0.00 40 1009.2
20260507154357 17 0 0.0 0.0 0.00 0.00 0.00 41 1009.1
20260507153457 17 0 0.0 0.0 0.00 0.00 0.00 42 1009.1
20260507152810 17 0 0.0 0.0 0.00 0.00 0.00 42 1009.4
20260507151658 17 0 0.0 0.0 0.00 0.00 0.00 41 1009.2
20260507151010 17 0 0.0 0.0 0.00 0.00 0.00 40 1009.2
20260507145857 17 0 0.0 0.0 0.00 0.00 0.00 41 1009.4
20260507144958 17 0 0.0 0.0 0.00 0.00 0.00 41 1009.4
20260507144057 17 0 0.0 0.0 0.00 0.00 0.00 41 1009.3
20260507143157 17 0 0.0 0.0 0.00 0.00 0.00 41 1009.5
20260507142259 17 0 0.0 0.0 0.00 0.00 0.00 40 1009.6
20260507141358 17 0 0.0 0.0 0.00 0.00 0.00 38 1009.6
20260507140457 17 0 0.0 0.0 0.00 0.00 0.00 43 1009.7
20260507135557 17 0 0.0 0.0 0.00 0.00 0.00 42 1009.7
20260507134657 17 0 0.0 0.0 0.00 0.00 0.00 43 1009.7
20260507133757 16 0 0.0 0.0 0.00 0.00 0.00 43 1009.5
20260507132857 16 0 0.0 0.0 0.00 0.00 0.00 44 1009.8
20260507131957 16 0 0.0 0.0 0.00 0.00 0.00 43 1009.8
20260507131102 16 0 0.0 0.0 0.00 0.00 0.00 43 1009.7
20260507130157 16 0 0.0 0.0 0.00 0.00 0.00 41 1010.0
20260507125510 17 0 0.0 0.0 0.00 0.00 0.00 41 1009.9
20260507124357 17 0 0.0 0.0 0.00 0.00 0.00 43 1010.2
20260507123457 16 0 0.0 0.0 0.00 0.00 0.00 44 1010.0
20260507122812 16 0 0.0 0.0 0.00 0.00 0.00 44 1010.1
20260507121659 16 0 0.0 0.0 0.00 0.00 0.00 48 1010.0
20260507120757 16 0 0.0 0.0 0.00 0.00 0.00 45 1010.3
20260507115857 16 0 0.0 0.0 0.00 0.00 0.00 46 1010.3
20260507115206 16 0 0.0 0.0 0.00 0.00 0.00 45 1010.3
20260507114058 17 0 0.0 0.0 0.00 0.00 0.00 47 1010.3
20260507113157 17 0 0.0 0.0 0.00 0.00 0.00 44 1010.5
20260507112257 17 0 0.0 0.0 0.00 0.00 0.00 47 1010.5
20260507111611 17 0 0.0 0.0 0.00 0.00 0.00 42 1010.6
20260507110457 17 0 0.0 0.0 0.00 0.00 0.00 48 1010.7
20260507105557 17 0 0.0 0.0 0.00 0.00 0.00 50 1010.6
20260507104657 17 0 0.0 0.0 0.00 0.00 0.00 54 1010.7
20260507104010 16 0 0.0 0.0 0.00 0.00 0.00 56 1010.9
20260507102857 16 0 0.0 0.0 0.00 0.00 0.00 55 1010.8
20260507101958 16 0 0.0 0.0 0.00 0.00 0.00 55 1010.7
20260507101307 16 0 0.0 0.0 0.00 0.00 0.00 56 1011.1
20260507100157 16 0 0.0 0.0 0.00 0.00 0.00 61 1011.2
20260507095258 15 0 0.0 0.0 0.00 0.00 0.00 62 1011.2
20260507094357 15 0 0.0 0.0 0.00 0.00 0.00 65 1011.1
20260507093457 15 0 0.0 0.0 0.00 0.00 0.00 72 1011.3
20260507092557 14 0 0.0 0.0 0.00 0.00 0.00 74 1011.1
20260507091657 13 0 0.0 0.0 0.00 0.00 0.00 79 1011.2
20260507090757 13 0 0.0 0.0 0.00 0.00 0.00 82 1011.5
20260507085857 12 0 0.0 0.0 0.00 0.00 0.00 88 1011.3
20260507084957 11 0 0.0 0.0 0.00 0.00 0.00 92 1011.5
20260507084057 11 0 0.0 0.0 0.00 0.00 0.00 94 1011.3
20260507083408 10 0 0.0 0.0 0.00 0.00 0.00 94 1011.6
20260507082257 9 0 0.0 0.0 0.00 0.00 0.00 94 1011.5
20260507081357 9 0 0.0 0.0 0.00 0.00 0.00 94 1011.5
20260507080710 9 0 0.0 0.0 0.00 0.00 0.00 94 1011.5
20260507075812 8 0 0.0 0.0 0.00 0.00 0.00 95 1011.6
20260507074657 8 0 0.0 0.0 0.00 0.00 0.00 94 1011.5
20260507073758 8 0 0.0 0.0 0.00 0.00 0.00 94 1011.7
20260507072857 7 0 0.0 0.0 0.00 0.00 0.00 94 1011.5
20260507071959 7 0 0.0 0.0 0.00 0.00 0.00 93 1011.4
20260507071058 7 0 0.0 0.0 0.00 0.00 0.00 100 1011.4
20260507070202 7 0 0.0 0.0 0.00 0.00 0.00 97 1011.4
20260507065257 7 0 0.0 0.0 0.00 0.00 0.00 97 1011.4
20260507064358 6 0 0.0 0.0 0.00 0.00 0.00 97 1011.4
20260507063509 6 0 0.0 0.0 0.00 0.00 0.00 97 1011.5
20260507062557 6 0 0.0 0.0 0.00 0.00 0.00 96 1011.2
20260507061658 6 0 0.0 0.0 0.00 0.00 0.00 96 1011.3
20260507060757 6 0 0.0 0.0 0.00 0.00 0.00 96 1011.4
20260507055857 6 0 0.0 0.0 0.00 0.00 0.00 96 1011.4
20260507054958 6 0 0.0 0.0 0.00 0.00 0.00 96 1011.2
20260507054057 6 0 0.0 0.0 0.00 0.00 0.00 95 1011.1
20260507053410 6 0 0.0 0.0 0.00 0.00 0.00 95 1011.2
20260507052257 6 0 0.0 0.0 0.00 0.00 0.00 95 1011.1
20260507051357 6 0 0.0 0.0 0.00 0.00 0.00 95 1011.0
20260507050457 6 0 0.0 0.0 0.00 0.00 0.00 95 1011.2
20260507045557 6 0 0.0 0.0 0.00 0.00 0.00 95 1011.0
20260507044657 6 0 0.0 0.0 0.00 0.00 0.00 95 1010.8
20260507044009 6 0 0.0 0.0 0.00 0.00 0.00 94 1010.8
20260507042857 6 0 0.0 0.0 0.00 0.00 0.00 94 1010.7
20260507042208 6 0 0.0 0.0 0.00 0.00 0.00 94 1010.8
20260507041057 6 0 0.0 0.0 0.00 0.00 0.00 94 1010.8
20260507040157 6 0 0.0 0.0 0.00 0.00 0.00 93 1011.0
20260507035511 6 0 0.0 0.0 0.00 0.00 0.00 93 1010.6
20260507034357 5 0 0.0 0.0 0.00 0.00 0.00 93 1010.7
20260507033457 5 0 0.0 0.0 0.00 0.00 0.00 92 1010.6
20260507032557 5 0 0.0 0.0 0.00 0.00 0.00 92 1010.8
20260507031658 5 0 0.0 0.0 0.00 0.00 0.00 92 1010.6
20260507031007 5 0 0.0 0.0 0.00 0.00 0.00 91 1010.6
20260507030110 5 0 0.0 0.0 0.00 0.00 0.00 91 1010.7
20260507024957 4 0 0.0 0.0 0.00 0.00 0.00 90 1010.8